Location: Mount Tamalpais State Park
(37.9108°N, 122.6128°W)
Time: 12:22:59
(UTC-07:00)

Cosmos 1814 Rocket - Visible Passes

Search period start: 20 June 2018 00:00
Search period end: 30 June 2018 00:00
Orbit: 744 x 788 km, 74.1° (Epoch: 19 June)

Date Brightness Start Highest point End Pass type
(mag) Time Alt. Az. Time Alt. Az. Time Alt. Az.
20 Jun 6.4 01:58:08 10° NNE 02:01:45 18° ENE 02:05:20 10° ESE visible
20 Jun 4.1 03:38:59 10° NNW 03:44:07 53° WSW 03:46:05 34° SSW visible
21 Jun 6.8 01:22:36 10° NE 01:23:45 11° NE 01:24:54 10° ENE visible
21 Jun 3.9 03:01:17 10° NNW 03:06:36 86° ENE 03:08:19 44° SSE visible
22 Jun 4.7 02:23:50 10° N 02:28:58 48° ENE 02:30:40 35° ESE visible
22 Jun 5.5 04:07:02 10° NW 04:10:31 18° W 04:10:50 18° W visible
23 Jun 5.6 01:46:40 10° N 01:51:13 28° ENE 01:53:05 23° E visible
23 Jun 4.8 03:28:33 10° NW 03:33:11 32° W 03:33:16 32° WSW visible
24 Jun 6.2 01:09:56 10° NNE 01:13:20 17° ENE 01:15:36 13° E visible
24 Jun 4.0 02:50:35 10° NNW 02:55:45 58° WSW 02:55:47 58° WSW visible
25 Jun 3.9 02:12:55 10° NNW 02:18:13 80° ENE 02:18:22 79° E visible
26 Jun 4.7 01:35:31 10° N 01:40:34 45° ENE 01:41:00 44° E visible
26 Jun 5.7 03:18:30 10° NW 03:21:11 18° W 03:21:11 18° W visible
27 Jun 5.5 00:58:24 10° N 01:02:48 26° ENE 01:03:41 25° E visible
27 Jun 5.0 02:40:06 10° NW 02:43:52 32° WNW 02:43:52 32° WNW visible
28 Jun 6.2 00:21:44 10° NNE 00:24:54 16° ENE 00:26:24 14° ENE visible
28 Jun 4.3 02:02:11 10° NNW 02:06:36 55° WNW 02:06:36 55° WNW visible
29 Jun 4.2 01:24:33 10° NNW 01:29:22 68° NNE 01:29:22 68° NNE visible
